| time (UTC) | temp C | wind direction | speed KPH | gust KPH | rain 1hr cm | rain 24hr cm | rain mn cm | humidity % | barometer mb |
| 20260508194454 | 15 | 157 | 22.5 | 24.1 | 0.00 | 0.00 | 0.00 | 45 | 1010.0 |
| 20260508193954 | 15 | 167 | 22.5 | 24.1 | 0.00 | 0.00 | 0.00 | 45 | 1010.2 |
| 20260508193457 | 15 | 176 | 20.9 | 24.1 | 0.00 | 0.00 | 0.00 | 43 | 1010.2 |
| 20260508192954 | 15 | 181 | 19.3 | 20.9 | 0.00 | 0.00 | 0.00 | 42 | 1010.1 |
| 20260508192454 | 15 | 181 | 19.3 | 19.3 | 0.00 | 0.00 | 0.00 | 42 | 1010.3 |
| 20260508191953 | 14 | 181 | 19.3 | 20.9 | 0.00 | 0.00 | 0.00 | 42 | 1010.3 |
| 20260508191454 | 14 | 181 | 20.9 | 24.1 | 0.00 | 0.00 | 0.00 | 42 | 1010.4 |
| 20260508190954 | 14 | 181 | 24.1 | 24.1 | 0.00 | 0.00 | 0.00 | 41 | 1010.7 |
| 20260508185954 | 14 | 181 | 22.5 | 25.7 | 0.00 | 0.00 | 0.00 | 40 | 1010.6 |
| 20260508184954 | 14 | 181 | 22.5 | 24.1 | 0.00 | 0.00 | 0.00 | 39 | 1010.6 |
| 20260508184453 | 14 | 181 | 22.5 | 24.1 | 0.00 | 0.00 | 0.00 | 38 | 1010.6 |
| 20260508183953 | 14 | 178 | 22.5 | 24.1 | 0.00 | 0.00 | 0.00 | 38 | 1010.7 |
| 20260508183454 | 14 | 178 | 22.5 | 24.1 | 0.00 | 0.00 | 0.00 | 40 | 1010.7 |
| 20260508182955 | 14 | 181 | 22.5 | 25.7 | 0.00 | 0.00 | 0.00 | 41 | 1010.8 |
| 20260508181954 | 13 | 181 | 25.7 | 27.4 | 0.00 | 0.00 | 0.00 | 40 | 1010.8 |
| 20260508181453 | 14 | 181 | 25.7 | 27.4 | 0.00 | 0.00 | 0.00 | 41 | 1010.9 |
| 20260508180954 | 13 | 181 | 24.1 | 25.7 | 0.00 | 0.00 | 0.00 | 40 | 1010.9 |
| 20260508180454 | 13 | 181 | 24.1 | 25.7 | 0.00 | 0.00 | 0.00 | 42 | 1010.8 |
| 20260508175954 | 13 | 181 | 24.1 | 27.4 | 0.00 | 0.00 | 0.00 | 41 | 1011.0 |
| 20260508175454 | 13 | 181 | 24.1 | 27.4 | 0.00 | 0.00 | 0.00 | 43 | 1011.1 |
| 20260508174954 | 13 | 181 | 22.5 | 24.1 | 0.00 | 0.00 | 0.00 | 44 | 1011.1 |
| 20260508174453 | 13 | 181 | 24.1 | 24.1 | 0.00 | 0.00 | 0.00 | 44 | 1011.1 |
| 20260508173956 | 13 | 181 | 24.1 | 24.1 | 0.00 | 0.00 | 0.00 | 42 | 1011.2 |
| 20260508173453 | 13 | 182 | 24.1 | 24.1 | 0.00 | 0.00 | 0.00 | 44 | 1011.4 |
| 20260508172953 | 13 | 184 | 24.1 | 24.1 | 0.00 | 0.00 | 0.00 | 44 | 1011.5 |
| 20260508172454 | 12 | 182 | 24.1 | 27.4 | 0.00 | 0.00 | 0.00 | 45 | 1011.5 |
| 20260508171953 | 12 | 181 | 25.7 | 27.4 | 0.00 | 0.00 | 0.00 | 45 | 1011.7 |
| 20260508171454 | 12 | 181 | 27.4 | 29.0 | 0.00 | 0.00 | 0.00 | 45 | 1011.7 |
| 20260508170954 | 12 | 181 | 29.0 | 29.0 | 0.00 | 0.00 | 0.00 | 45 | 1011.7 |
| 20260508170453 | 12 | 182 | 29.0 | 30.6 | 0.00 | 0.00 | 0.00 | 44 | 1011.7 |
| 20260508164453 | 12 | 181 | 25.7 | 27.4 | 0.00 | 0.00 | 0.00 | 43 | 1012.0 |
| 20260508163953 | 13 | 181 | 25.7 | 27.4 | 0.00 | 0.00 | 0.00 | 43 | 1012.1 |
| 20260508163453 | 12 | 182 | 24.1 | 27.4 | 0.00 | 0.00 | 0.00 | 42 | 1012.1 |
| 20260508162954 | 13 | 182 | 24.1 | 25.7 | 0.00 | 0.00 | 0.00 | 41 | 1012.3 |
| 20260508162454 | 13 | 181 | 22.5 | 25.7 | 0.00 | 0.00 | 0.00 | 40 | 1012.3 |
| 20260508161953 | 13 | 181 | 20.9 | 24.1 | 0.00 | 0.00 | 0.00 | 39 | 1012.2 |
| 20260508161454 | 13 | 181 | 20.9 | 24.1 | 0.00 | 0.00 | 0.00 | 39 | 1012.1 |
| 20260508160953 | 13 | 181 | 20.9 | 22.5 | 0.00 | 0.00 | 0.00 | 40 | 1012.2 |
| 20260508160455 | 13 | 176 | 20.9 | 20.9 | 0.00 | 0.00 | 0.00 | 40 | 1012.4 |
| 20260508155455 | 13 | 181 | 19.3 | 22.5 | 0.00 | 0.00 | 0.00 | 39 | 1012.2 |
| 20260508154953 | 13 | 181 | 17.7 | 19.3 | 0.00 | 0.00 | 0.00 | 38 | 1012.3 |
| 20260508153954 | 13 | 176 | 17.7 | 17.7 | 0.00 | 0.00 | 0.00 | 39 | 1012.2 |
| 20260508153455 | 13 | 177 | 17.7 | 19.3 | 0.00 | 0.00 | 0.00 | 40 | 1012.2 |
| 20260508152954 | 13 | 178 | 17.7 | 19.3 | 0.00 | 0.00 | 0.00 | 39 | 1012.4 |
| 20260508150954 | 13 | 181 | 12.9 | 14.5 | 0.00 | 0.00 | 0.00 | 39 | 1012.4 |
| 20260508150454 | 13 | 181 | 12.9 | 14.5 | 0.00 | 0.00 | 0.00 | 38 | 1012.4 |
| 20260508145955 | 13 | 181 | 12.9 | 14.5 | 0.00 | 0.00 | 0.00 | 38 | 1012.4 |
| 20260508145453 | 13 | 181 | 12.9 | 12.9 | 0.00 | 0.00 | 0.00 | 38 | 1012.4 |
| 20260508144953 | 13 | 182 | 9.7 | 12.9 | 0.00 | 0.00 | 0.00 | 39 | 1012.5 |
| 20260508144453 | 13 | 182 | 9.7 | 12.9 | 0.00 | 0.00 | 0.00 | 38 | 1012.3 |
| 20260508143955 | 13 | 181 | 9.7 | 12.9 | 0.00 | 0.00 | 0.00 | 39 | 1012.4 |
| 20260508143454 | 12 | 184 | 9.7 | 11.3 | 0.00 | 0.00 | 0.00 | 39 | 1012.4 |
| 20260508142953 | 12 | 184 | 9.7 | 11.3 | 0.00 | 0.00 | 0.00 | 40 | 1012.4 |
| 20260508141954 | 12 | 181 | 11.3 | 12.9 | 0.00 | 0.00 | 0.00 | 40 | 1012.6 |
| 20260508141453 | 12 | 185 | 11.3 | 12.9 | 0.00 | 0.00 | 0.00 | 40 | 1012.6 |
| 20260508140953 | 12 | 196 | 11.3 | 12.9 | 0.00 | 0.00 | 0.00 | 41 | 1012.6 |
| 20260508140453 | 11 | 199 | 9.7 | 11.3 | 0.00 | 0.00 | 0.00 | 42 | 1012.5 |
| 20260508135955 | 11 | 189 | 8.0 | 9.7 | 0.00 | 0.00 | 0.00 | 42 | 1012.6 |
| 20260508134953 | 12 | 183 | 8.0 | 9.7 | 0.00 | 0.00 | 0.00 | 43 | 1012.7 |
| 20260508133954 | 11 | 200 | 9.7 | 9.7 | 0.00 | 0.00 | 0.00 | 44 | 1012.6 |
| 20260508133453 | 11 | 195 | 9.7 | 12.9 | 0.00 | 0.00 | 0.00 | 44 | 1012.6 |
| 20260508132954 | 11 | 189 | 11.3 | 12.9 | 0.00 | 0.00 | 0.00 | 44 | 1012.5 |
| 20260508132454 | 11 | 191 | 9.7 | 12.9 | 0.00 | 0.00 | 0.00 | 44 | 1012.4 |
| 20260508131953 | 11 | 193 | 6.4 | 9.7 | 0.00 | 0.00 | 0.00 | 44 | 1012.5 |
| 20260508131454 | 10 | 186 | 6.4 | 6.4 | 0.00 | 0.00 | 0.00 | 43 | 1012.5 |
| 20260508130953 | 10 | 196 | 6.4 | 6.4 | 0.00 | 0.00 | 0.00 | 44 | 1012.5 |
| 20260508130454 | 10 | 199 | 4.8 | 6.4 | 0.00 | 0.00 | 0.00 | 44 | 1012.5 |
| 20260508125953 | 10 | 193 | 3.2 | 4.8 | 0.00 | 0.00 | 0.00 | 44 | 1012.6 |
| 20260508125453 | 10 | 261 | 3.2 | 4.8 | 0.00 | 0.00 | 0.00 | 42 | 1012.7 |
| 20260508124955 | 10 | 317 | 4.8 | 8.0 | 0.00 | 0.00 | 0.00 | 42 | 1012.6 |
| 20260508124454 | 10 | 285 | 6.4 | 9.7 | 0.00 | 0.00 | 0.00 | 42 | 1012.7 |
| 20260508123954 | 10 | 255 | 8.0 | 12.9 | 0.00 | 0.00 | 0.00 | 46 | 1012.5 |
| 20260508123453 | 10 | 244 | 8.0 | 12.9 | 0.00 | 0.00 | 0.00 | 47 | 1012.6 |
| 20260508122953 | 10 | 227 | 9.7 | 12.9 | 0.00 | 0.00 | 0.00 | 48 | 1012.5 |
| 20260508122454 | 10 | 230 | 9.7 | 12.9 | 0.00 | 0.00 | 0.00 | 48 | 1012.5 |
| 20260508120953 | 9 | 315 | 3.2 | 6.4 | 0.00 | 0.00 | 0.00 | 50 | 1012.5 |
| 20260508120453 | 8 | 291 | 4.8 | 9.7 | 0.00 | 0.00 | 0.00 | 51 | 1012.4 |
| 20260508114954 | 8 | 287 | 6.4 | 8.0 | 0.00 | 0.00 | 0.00 | 52 | 1012.2 |
| 20260508114454 | 8 | 288 | 6.4 | 9.7 | 0.00 | 0.00 | 0.00 | 53 | 1012.1 |
| 20260508113953 | 8 | 275 | 6.4 | 9.7 | 0.00 | 0.00 | 0.00 | 52 | 1012.1 |
| 20260508113453 | 8 | 265 | 4.8 | 6.4 | 0.00 | 0.00 | 0.00 | 52 | 1011.9 |
| 20260508112953 | 8 | 269 | 4.8 | 6.4 | 0.00 | 0.00 | 0.00 | 52 | 1012.0 |
| 20260508111953 | 8 | 273 | 4.8 | 6.4 | 0.00 | 0.00 | 0.00 | 52 | 1011.8 |
| 20260508111453 | 8 | 254 | 6.4 | 8.0 | 0.00 | 0.00 | 0.00 | 52 | 1011.9 |
| 20260508110454 | 7 | 248 | 8.0 | 9.7 | 0.00 | 0.00 | 0.00 | 52 | 1012.0 |
| 20260508105953 | 7 | 265 | 8.0 | 9.7 | 0.00 | 0.00 | 0.00 | 53 | 1012.1 |
| 20260508105453 | 7 | 267 | 6.4 | 8.0 | 0.00 | 0.00 | 0.00 | 53 | 1011.9 |
| 20260508104454 | 7 | 255 | 6.4 | 9.7 | 0.00 | 0.00 | 0.00 | 53 | 1011.8 |
| 20260508103953 | 7 | 259 | 4.8 | 6.4 | 0.00 | 0.00 | 0.00 | 52 | 1012.0 |
| 20260508103453 | 7 | 282 | 3.2 | 6.4 | 0.00 | 0.00 | 0.00 | 52 | 1011.8 |
| 20260508102953 | 7 | 282 | 3.2 | 6.4 | 0.00 | 0.00 | 0.00 | 51 | 1011.8 |
| 20260508102454 | 7 | 316 | 3.2 | 4.8 | 0.00 | 0.00 | 0.00 | 51 | 1011.8 |
| 20260508101453 | 7 | 273 | 3.2 | 4.8 | 0.00 | 0.00 | 0.00 | 51 | 1011.8 |
| 20260508100953 | 7 | 242 | 3.2 | 4.8 | 0.00 | 0.00 | 0.00 | 50 | 1011.7 |
| 20260508100453 | 7 | 251 | 3.2 | 4.8 | 0.00 | 0.00 | 0.00 | 50 | 1011.7 |
| 20260508095953 | 7 | 291 | 3.2 | 4.8 | 0.00 | 0.00 | 0.00 | 50 | 1011.8 |
| 20260508093454 | 8 | 308 | 4.8 | 6.4 | 0.00 | 0.00 | 0.00 | 49 | 1011.8 |
| 20260508092953 | 8 | 340 | 4.8 | 8.0 | 0.00 | 0.00 | 0.00 | 49 | 1011.6 |
| 20260508091953 | 8 | 352 | 6.4 | 8.0 | 0.00 | 0.00 | 0.00 | 48 | 1011.7 |
| 20260508091454 | 8 | 331 | 4.8 | 6.4 | 0.00 | 0.00 | 0.00 | 46 | 1011.7 |
| 20260508090953 | 9 | 315 | 6.4 | 6.4 | 0.00 | 0.00 | 0.00 | 46 | 1011.8 |
| 20260508090453 | 9 | 316 | 8.0 | 11.3 | 0.00 | 0.00 | 0.00 | 45 | 1011.8 |
| 20260508085453 | 9 | 291 | 9.7 | 14.5 | 0.00 | 0.00 | 0.00 | 44 | 1011.6 |
| 20260508084953 | 9 | 282 | 9.7 | 14.5 | 0.00 | 0.00 | 0.00 | 44 | 1011.6 |
| 20260508084453 | 9 | 291 | 8.0 | 14.5 | 0.00 | 0.00 | 0.00 | 44 | 1011.6 |
| 20260508083952 | 10 | 316 | 6.4 | 12.9 | 0.00 | 0.00 | 0.00 | 44 | 1011.8 |
| 20260508083453 | 10 | 305 | 6.4 | 9.7 | 0.00 | 0.00 | 0.00 | 44 | 1011.8 |
| 20260508082953 | 10 | 289 | 6.4 | 9.7 | 0.00 | 0.00 | 0.00 | 44 | 1011.8 |
| 20260508082453 | 10 | 292 | 6.4 | 9.7 | 0.00 | 0.00 | 0.00 | 44 | 1011.6 |
| 20260508081953 | 10 | 293 | 8.0 | 16.1 | 0.00 | 0.00 | 0.00 | 44 | 1011.7 |
| 20260508081452 | 10 | 312 | 11.3 | 17.7 | 0.00 | 0.00 | 0.00 | 44 | 1011.8 |
| 20260508080953 | 10 | 351 | 14.5 | 17.7 | 0.00 | 0.00 | 0.00 | 43 | 1011.8 |
| 20260508080453 | 10 | 327 | 16.1 | 17.7 | 0.00 | 0.00 | 0.00 | 43 | 1011.8 |
| 20260508075953 | 10 | 287 | 12.9 | 17.7 | 0.00 | 0.00 | 0.00 | 43 | 1011.9 |
| 20260508075453 | 10 | 287 | 9.7 | 12.9 | 0.00 | 0.00 | 0.00 | 43 | 1011.8 |
| 20260508074953 | 10 | 282 | 9.7 | 14.5 | 0.00 | 0.00 | 0.00 | 43 | 1011.8 |
| 20260508074453 | 10 | 277 | 11.3 | 16.1 | 0.00 | 0.00 | 0.00 | 42 | 1011.9 |
| 20260508073953 | 10 | 261 | 14.5 | 19.3 | 0.00 | 0.00 | 0.00 | 42 | 1011.8 |
| 20260508073452 | 10 | 270 | 16.1 | 19.3 | 0.00 | 0.00 | 0.00 | 42 | 1011.8 |
| 20260508072953 | 10 | 289 | 12.9 | 17.7 | 0.00 | 0.00 | 0.00 | 42 | 1011.8 |
| 20260508072453 | 10 | 268 | 12.9 | 22.5 | 0.00 | 0.00 | 0.00 | 42 | 1011.8 |
| 20260508071954 | 10 | 258 | 16.1 | 22.5 | 0.00 | 0.00 | 0.00 | 43 | 1011.7 |
| 20260508071453 | 10 | 270 | 17.7 | 22.5 | 0.00 | 0.00 | 0.00 | 44 | 1011.7 |
| 20260508070953 | 11 | 270 | 19.3 | 22.5 | 0.00 | 0.00 | 0.00 | 44 | 1011.9 |
| 20260508070453 | 11 | 252 | 22.5 | 27.4 | 0.00 | 0.00 | 0.00 | 42 | 1011.7 |
| 20260508065953 | 11 | 231 | 25.7 | 33.8 | 0.00 | 0.00 | 0.00 | 43 | 1011.5 |
| 20260508064953 | 11 | 231 | 35.4 | 40.2 | 0.00 | 0.00 | 0.00 | 44 | 1011.8 |
| 20260508064453 | 11 | 225 | 35.4 | 40.2 | 0.00 | 0.00 | 0.00 | 43 | 1011.9 |
| 20260508063953 | 11 | 221 | 33.8 | 37.0 | 0.00 | 0.00 | 0.00 | 42 | 1011.8 |
| 20260508062954 | 11 | 227 | 30.6 | 37.0 | 0.00 | 0.00 | 0.00 | 41 | 1011.9 |
| 20260508062454 | 11 | 230 | 25.7 | 37.0 | 0.00 | 0.00 | 0.00 | 42 | 1012.0 |
| 20260508061954 | 11 | 259 | 20.9 | 29.0 | 0.00 | 0.00 | 0.00 | 40 | 1011.9 |
| 20260508061453 | 10 | 271 | 17.7 | 27.4 | 0.00 | 0.00 | 0.00 | 39 | 1011.9 |
| 20260508055953 | 10 | 271 | 14.5 | 17.7 | 0.00 | 0.00 | 0.00 | 37 | 1012.3 |
| 20260508055453 | 11 | 272 | 12.9 | 17.7 | 0.00 | 0.00 | 0.00 | 37 | 1012.3 |
| 20260508054953 | 11 | 259 | 17.7 | 29.0 | 0.00 | 0.00 | 0.00 | 37 | 1012.2 |
| 20260508054453 | 11 | 233 | 20.9 | 29.0 | 0.00 | 0.00 | 0.00 | 38 | 1012.3 |
| 20260508053952 | 11 | 227 | 22.5 | 27.4 | 0.00 | 0.00 | 0.00 | 39 | 1012.1 |
| 20260508053453 | 11 | 227 | 24.1 | 29.0 | 0.00 | 0.00 | 0.00 | 42 | 1012.1 |
| 20260508052953 | 11 | 227 | 25.7 | 33.8 | 0.00 | 0.00 | 0.00 | 40 | 1012.1 |
| 20260508052452 | 11 | 227 | 29.0 | 33.8 | 0.00 | 0.00 | 0.00 | 40 | 1012.2 |
| 20260508051952 | 11 | 225 | 27.4 | 33.8 | 0.00 | 0.00 | 0.00 | 40 | 1012.2 |
| 20260508051453 | 11 | 224 | 25.7 | 33.8 | 0.00 | 0.00 | 0.00 | 40 | 1012.3 |
| 20260508050953 | 11 | 224 | 24.1 | 27.4 | 0.00 | 0.00 | 0.00 | 41 | 1012.3 |
| 20260508045953 | 11 | 225 | 29.0 | 33.8 | 0.00 | 0.00 | 0.00 | 42 | 1012.3 |
| 20260508045453 | 11 | 232 | 27.4 | 33.8 | 0.00 | 0.00 | 0.00 | 41 | 1012.3 |
| 20260508044954 | 11 | 243 | 19.3 | 32.2 | 0.00 | 0.00 | 0.00 | 40 | 1012.3 |
| 20260508044453 | 10 | 250 | 9.7 | 24.1 | 0.00 | 0.00 | 0.00 | 39 | 1012.3 |
| 20260508043953 | 10 | 270 | 6.4 | 11.3 | 0.00 | 0.00 | 0.00 | 34 | 1012.2 |
| 20260508042953 | 10 | 259 | 8.0 | 14.5 | 0.00 | 0.00 | 0.00 | 34 | 1012.3 |
| 20260508042452 | 10 | 265 | 8.0 | 12.9 | 0.00 | 0.00 | 0.00 | 33 | 1012.3 |
| 20260508041953 | 10 | 276 | 8.0 | 11.3 | 0.00 | 0.00 | 0.00 | 32 | 1012.3 |
| 20260508041453 | 11 | 289 | 6.4 | 11.3 | 0.00 | 0.00 | 0.00 | 32 | 1012.4 |
| 20260508040952 | 11 | 308 | 8.0 | 9.7 | 0.00 | 0.00 | 0.00 | 31 | 1012.3 |
| 20260508040452 | 11 | 304 | 8.0 | 11.3 | 0.00 | 0.00 | 0.00 | 30 | 1012.5 |
| 20260508035953 | 11 | 281 | 8.0 | 11.3 | 0.00 | 0.00 | 0.00 | 30 | 1012.6 |
| 20260508034953 | 11 | 280 | 6.4 | 9.7 | 0.00 | 0.00 | 0.00 | 30 | 1012.7 |
| 20260508034453 | 11 | 273 | 8.0 | 11.3 | 0.00 | 0.00 | 0.00 | 30 | 1012.7 |
| 20260508033952 | 11 | 283 | 8.0 | 12.9 | 0.00 | 0.00 | 0.00 | 30 | 1012.7 |
| 20260508033452 | 11 | 292 | 9.7 | 12.9 | 0.00 | 0.00 | 0.00 | 30 | 1012.6 |
| 20260508031954 | 11 | 273 | 9.7 | 16.1 | 0.00 | 0.00 | 0.00 | 30 | 1012.6 |
| 20260508031454 | 11 | 288 | 12.9 | 17.7 | 0.00 | 0.00 | 0.00 | 30 | 1012.7 |
| 20260508030452 | 11 | 317 | 9.7 | 11.3 | 0.00 | 0.00 | 0.00 | 30 | 1012.8 |
| 20260508025952 | 11 | 309 | 9.7 | 14.5 | 0.00 | 0.00 | 0.00 | 30 | 1012.6 |
| 20260508025453 | 11 | 276 | 14.5 | 27.4 | 0.00 | 0.00 | 0.00 | 30 | 1012.7 |
| 20260508024953 | 12 | 267 | 14.5 | 27.4 | 0.00 | 0.00 | 0.00 | 30 | 1012.5 |
| 20260508024454 | 12 | 268 | 11.3 | 19.3 | 0.00 | 0.00 | 0.00 | 30 | 1012.6 |
| 20260508023952 | 12 | 252 | 17.7 | 27.4 | 0.00 | 0.00 | 0.00 | 30 | 1012.7 |
| 20260508022953 | 12 | 230 | 19.3 | 29.0 | 0.00 | 0.00 | 0.00 | 31 | 1012.6 |
| 20260508021952 | 12 | 225 | 17.7 | 20.9 | 0.00 | 0.00 | 0.00 | 35 | 1012.3 |
| 20260508021453 | 12 | 225 | 14.5 | 19.3 | 0.00 | 0.00 | 0.00 | 34 | 1012.3 |
| 20260508020952 | 11 | 225 | 8.0 | 17.7 | 0.00 | 0.00 | 0.00 | 32 | 1012.4 |
| 20260508020454 | 11 | 238 | 6.4 | 8.0 | 0.00 | 0.00 | 0.00 | 30 | 1012.3 |
| 20260508015953 | 11 | 244 | 6.4 | 8.0 | 0.00 | 0.00 | 0.00 | 30 | 1012.2 |
| 20260508015454 | 11 | 234 | 6.4 | 8.0 | 0.00 | 0.00 | 0.00 | 30 | 1012.1 |
| 20260508014953 | 11 | 225 | 6.4 | 8.0 | 0.00 | 0.00 | 0.00 | 30 | 1012.2 |
| 20260508014453 | 11 | 229 | 6.4 | 8.0 | 0.00 | 0.00 | 0.00 | 30 | 1012.2 |
| 20260508013953 | 10 | 235 | 4.8 | 6.4 | 0.00 | 0.00 | 0.00 | 30 | 1012.1 |
| 20260508013453 | 10 | 230 | 1.6 | 4.8 | 0.00 | 0.00 | 0.00 | 30 | 1012.0 |
| 20260508012454 | 11 | 0 | 0.0 | 0.0 | 0.00 | 0.00 | 0.00 | 30 | 1012.0 |
| 20260508011953 | 10 | 0 | 0.0 | 0.0 | 0.00 | 0.00 | 0.00 | 30 | 1012.0 |
| 20260508011454 | 10 | 275 | 1.6 | 3.2 | 0.00 | 0.00 | 0.00 | 30 | 1011.8 |
| 20260508010954 | 10 | 272 | 3.2 | 3.2 | 0.00 | 0.00 | 0.00 | 30 | 1011.8 |
| 20260508010454 | 11 | 289 | 3.2 | 3.2 | 0.00 | 0.00 | 0.00 | 30 | 1011.8 |
| 20260508005954 | 11 | 321 | 3.2 | 3.2 | 0.00 | 0.00 | 0.00 | 30 | 1011.8 |
| 20260508005453 | 11 | 311 | 3.2 | 4.8 | 0.00 | 0.00 | 0.00 | 30 | 1011.8 |
| 20260508004954 | 11 | 304 | 3.2 | 4.8 | 0.00 | 0.00 | 0.00 | 30 | 1011.8 |
| 20260508004454 | 11 | 303 | 3.2 | 4.8 | 0.00 | 0.00 | 0.00 | 30 | 1011.8 |
| 20260508003954 | 12 | 301 | 3.2 | 6.4 | 0.00 | 0.00 | 0.00 | 30 | 1011.8 |
| 20260508003454 | 12 | 309 | 4.8 | 6.4 | 0.00 | 0.00 | 0.00 | 30 | 1011.6 |
| 20260508002954 | 12 | 315 | 4.8 | 6.4 | 0.00 | 0.00 | 0.00 | 30 | 1011.8 |
| 20260508002454 | 12 | 312 | 3.2 | 6.4 | 0.00 | 0.00 | 0.00 | 30 | 1011.7 |
| 20260508001954 | 12 | 293 | 4.8 | 9.7 | 0.00 | 0.00 | 0.00 | 30 | 1011.8 |
| 20260508001454 | 13 | 291 | 6.4 | 11.3 | 0.00 | 0.00 | 0.00 | 30 | 1011.8 |
| 20260508000955 | 12 | 340 | 6.4 | 11.3 | 0.00 | 0.00 | 0.00 | 30 | 1011.7 |
| 20260508000457 | 12 | 334 | 6.4 | 9.7 | 0.00 | 0.00 | 0.00 | 30 | 1011.6 |
| 20260507235454 | 13 | 275 | 11.3 | 14.5 | 0.00 | 0.00 | 0.00 | 30 | 1011.7 |
| 20260507234955 | 13 | 277 | 9.7 | 12.9 | 0.00 | 0.00 | 0.00 | 30 | 1011.6 |
| 20260507234455 | 13 | 296 | 9.7 | 12.9 | 0.00 | 0.00 | 0.00 | 30 | 1011.6 |
| 20260507233956 | 13 | 300 | 9.7 | 12.9 | 0.00 | 0.00 | 0.00 | 30 | 1011.7 |
| 20260507233454 | 13 | 287 | 9.7 | 14.5 | 0.00 | 0.00 | 0.00 | 30 | 1011.6 |
| 20260507232955 | 14 | 247 | 12.9 | 17.7 | 0.00 | 0.00 | 0.00 | 30 | 1011.6 |
| 20260507232456 | 14 | 257 | 14.5 | 19.3 | 0.00 | 0.00 | 0.00 | 30 | 1011.5 |
| 20260507231455 | 14 | 284 | 11.3 | 17.7 | 0.00 | 0.00 | 0.00 | 30 | 1011.6 |
| 20260507230455 | 15 | 308 | 9.7 | 17.7 | 0.00 | 0.00 | 0.00 | 30 | 1011.7 |
| 20260507225955 | 15 | 301 | 14.5 | 25.7 | 0.00 | 0.00 | 0.00 | 30 | 1011.6 |
| 20260507224456 | 14 | 318 | 16.1 | 24.1 | 0.00 | 0.00 | 0.00 | 30 | 1011.9 |
| 20260507223455 | 15 | 324 | 14.5 | 24.1 | 0.00 | 0.00 | 0.00 | 30 | 1011.9 |
| 20260507222956 | 15 | 310 | 14.5 | 24.1 | 0.00 | 0.00 | 0.00 | 30 | 1011.8 |
| 20260507221955 | 14 | 278 | 16.1 | 24.1 | 0.00 | 0.00 | 0.00 | 30 | 1011.7 |
| 20260507221457 | 14 | 256 | 16.1 | 20.9 | 0.00 | 0.00 | 0.00 | 30 | 1011.8 |
| 20260507220956 | 15 | 239 | 17.7 | 20.9 | 0.00 | 0.00 | 0.00 | 30 | 1011.7 |
| 20260507220457 | 15 | 238 | 16.1 | 22.5 | 0.00 | 0.00 | 0.00 | 30 | 1011.7 |
| 20260507215956 | 15 | 270 | 19.3 | 27.4 | 0.00 | 0.00 | 0.00 | 30 | 1011.9 |
| 20260507215456 | 15 | 287 | 19.3 | 27.4 | 0.00 | 0.00 | 0.00 | 30 | 1011.9 |
| 20260507214956 | 15 | 290 | 17.7 | 30.6 | 0.00 | 0.00 | 0.00 | 30 | 1011.7 |
| 20260507214457 | 15 | 312 | 17.7 | 30.6 | 0.00 | 0.00 | 0.00 | 30 | 1011.7 |
| 20260507213956 | 15 | 322 | 17.7 | 25.7 | 0.00 | 0.00 | 0.00 | 30 | 1011.7 |
| 20260507213457 | 15 | 280 | 17.7 | 29.0 | 0.00 | 0.00 | 0.00 | 30 | 1011.7 |
| 20260507212458 | 15 | 309 | 20.9 | 27.4 | 0.00 | 0.00 | 0.00 | 30 | 1011.7 |
| 20260507211958 | 15 | 295 | 22.5 | 27.4 | 0.00 | 0.00 | 0.00 | 30 | 1011.8 |
| 20260507211458 | 15 | 291 | 19.3 | 27.4 | 0.00 | 0.00 | 0.00 | 30 | 1011.7 |
| 20260507210957 | 15 | 288 | 12.9 | 25.7 | 0.00 | 0.00 | 0.00 | 30 | 1011.8 |
| 20260507210457 | 15 | 289 | 12.9 | 27.4 | 0.00 | 0.00 | 0.00 | 30 | 1011.6 |
| 20260507205957 | 15 | 277 | 19.3 | 32.2 | 0.00 | 0.00 | 0.00 | 30 | 1011.8 |
| 20260507204957 | 14 | 326 | 19.3 | 29.0 | 0.00 | 0.00 | 0.00 | 30 | 1011.8 |
| 20260507202957 | 13 | 310 | 17.7 | 30.6 | 0.00 | 0.00 | 0.00 | 30 | 1011.8 |
| 20260507202458 | 13 | 285 | 17.7 | 25.7 | 0.00 | 0.00 | 0.00 | 30 | 1011.7 |
| 20260507201958 | 14 | 274 | 20.9 | 32.2 | 0.00 | 0.00 | 0.00 | 30 | 1011.6 |
| 20260507201457 | 14 | 273 | 22.5 | 32.2 | 0.00 | 0.00 | 0.00 | 30 | 1011.6 |
| 20260507200957 | 13 | 291 | 14.5 | 29.0 | 0.00 | 0.00 | 0.00 | 30 | 1011.6 |
| 20260507200459 | 13 | 303 | 12.9 | 19.3 | 0.00 | 0.00 | 0.00 | 30 | 1011.7 |
| 20260507195958 | 13 | 289 | 17.7 | 24.1 | 0.00 | 0.00 | 0.00 | 30 | 1011.7 |
| 20260507195458 | 13 | 294 | 14.5 | 24.1 | 0.00 | 0.00 | 0.00 | 30 | 1011.7 |
| 20260507194957 | 13 | 306 | 12.9 | 20.9 | 0.00 | 0.00 | 0.00 | 30 | 1011.6 |